AirNav   Air Wisconsin pilot careers
 
 445 users online  

8D4 Paul C Miller-Sparta Airport
Sparta, Michigan, USA

GOING TO SPARTA?


FAA INFORMATION EFFECTIVE 16 AUGUST 2018

Location

FAA Identifier: 8D4
Lat/Long: 43-07-38.7752N / 085-40-44.8665W
43-07.646253N / 085-40.747775W
43.1274376 / -85.6791296
(estimated)
Elevation: 774.8 ft. / 236.2 m (surveyed)
Variation: 04W (1980)
From city: 3 miles SE of SPARTA, MI
Time zone: UTC -4 (UTC -5 during Standard Time)
Zip code: 49345

Airport Operations

Airport use: Open to the public
Activation date: 12/1944
Control tower: no
ARTCC: CHICAGO CENTER
FSS: LANSING FLIGHT SERVICE STATION
NOTAMs facility: LAN (NOTAM-D service available)
Attendance: IREG
Wind indicator: lighted
Segmented circle: yes
Lights: ACTVT MIRL RY 07/25, PAPI RY 07 & RY 25, REIL RY 07 & RY 25 - CTAF.
Beacon: white-green (lighted land airport)
Operates sunset to sunrise.

Airport Communications

CTAF/UNICOM: 122.8
WX AWOS-A: 132.95 (616-887-2039)
GRAND RAPIDS APPROACH: 124.6 [0600-2300]
GRAND RAPIDS DEPARTURE: 124.6 [0600-2300]
WX ASOS at GRR (16 nm SE): 118.725 (616-575-1953)
  • APCH/DEP SERVICE PROVIDED BY CHICAGO ARTCC ON FREQS 128.5/273.525 (PULLMAN RCAG) WHEN GRAND RAPIDS APCH CTL CLSD.

Nearby radio navigation aids

VOR radial/distance  VOR name  Freq  Var
MKGr100/16.0MUSKEGON VORTAC115.2001W
VIOr343/22.0VICTORY VOR/DME115.9504W
HICr178/26.9WHITE CLOUD VOR/DME117.6001W

Airport Services

Fuel available: 100LL MOGAS
Parking: hangars and tiedowns
Airframe service: MAJOR
Powerplant service: MAJOR
Bottled oxygen: NONE
Bulk oxygen: NONE

Runway Information

Runway 7/25

Dimensions: 4032 x 75 ft. / 1229 x 23 m
Surface: asphalt, in good condition
Weight bearing capacity: 
Single wheel: 24.0
Runway edge lights: medium intensity
RUNWAY 7  RUNWAY 25
Latitude: 43-07.492800N43-07.799705N
Longitude: 085-41.149523W085-40.346025W
Elevation: 774.6 ft.744.9 ft.
Gradient: 0.3%0.7% UP
Traffic pattern: leftleft
Runway heading: 067 magnetic, 063 true247 magnetic, 243 true
Markings: nonprecision, in good conditionnonprecision, in good condition
Visual slope indicator: 2-light PAPI on left (3.50 degrees glide path)2-light PAPI on right (3.50 degrees glide path)
Runway end identifier lights: yesyes
Touchdown point: yes, no lightsyes, no lights

Airport Ownership and Management from official FAA records

Ownership: Publicly-owned
Owner: CITY OF SPARTA
156 EAST DIVISION
SPARTA, MI 49345
Phone (616) 887-8251
Manager: VIC JOHNSTON
9100 VINTON AVE.
SPARTA, MI 49345
Phone (616) 887-5744

Airport Operational Statistics

Aircraft based on the field: 92
Single engine airplanes: 89
Multi engine airplanes: 1
Jet airplanes: 1
Helicopters: 1
    
Aircraft operations: avg 41/day *
60% local general aviation
40% transient general aviation
* for 12-month period ending 31 December 2014

Additional Remarks

DEER ON & INVOF ARPT.
POWERED PARACHUTE OPNS NORTH SIDE OF RY.

Instrument Procedures

NOTE: All procedures below are presented as PDF files. If you need a reader for these files, you should download the free Adobe Reader.

NOT FOR NAVIGATION. Please procure official charts for flight.
FAA instrument procedures published for use from 16 August 2018 at 0901Z to 13 September 2018 at 0900Z.

 
IAPs - Instrument Approach Procedures
RNAV (GPS) RWY 07   download (184KB)
RNAV (GPS) RWY 25   download (186KB)
VOR-A   download (175KB)
NOTE: Special Alternate Minimums apply   download (24KB)
NOTE: Special Take-Off Minimums/Departure Procedures apply   download (181KB)

Other nearby airports with instrument procedures:

KGRR - Gerald R Ford International Airport (16 nm SE)
6D6 - Greenville Municipal Airport (19 nm E)
KFFX - Fremont Municipal Airport (23 nm NW)
3GM - Grand Haven Memorial Airpark (23 nm W)
KMKG - Muskegon County Airport (24 nm W)
 
Loc | Ops | Rwys | IFR | FBO | Links
Com | Nav | Svcs | Stats | Notes


 
Area around 8D4 (Paul C Miller-Sparta Airport)
 
Road maps at: MapQuest Bing Google
 
Aerial photo
WARNING: Photo may not be current or correct
Aerial photo of 8D4 (Paul C Miller-Sparta Airport)
Photo by Tal Reichert
Photo taken 29-Jul-2012
looking northeast.

Do you have a better or more recent aerial photo of Paul C Miller-Sparta Airport that you would like to share? If so, please send us your photo.

 
Sectional chart

 
Airport distance calculator
Flying to Paul C Miller-Sparta Airport? Find the distance to fly.

From to 8D4

Sunrise and sunset
Times for 18-Aug-2018
 Local
(UTC-4)
 Zulu
(UTC)
Morning civil twilight06:2210:22
Sunrise06:5310:53
Sunset20:4000:40
Evening civil twilight21:1101:11

Current date and time
Zulu (UTC)  18-Aug-2018 07:03:49
Local (UTC-4)  18-Aug-2018 03:03:49
 
METAR
KGRR 
16nm SE 
180653Z AUTO 30003KT 6SM BR CLR 21/20 A2999 RMK AO2 SLP149 T02110200
KFFX 
23nm NW 
180655Z AUTO 35003KT 2 1/2SM BR CLR 17/17 A3000 RMK AO2 T01710171
KMKG 
24nm W 
180655Z AUTO 35006KT 9SM CLR 20/18 A3000 RMK AO2 SLP155 T02000183 $
KBIV 
29nm SW 
180649Z AUTO 00000KT 3SM BR FEW002 18/17 A3000 RMK AO2 SLP153 T01830172
KY70 
29nm SE 
180655Z AUTO 29004KT 7SM CLR 20/19 A2998 RMK AO2 T02020193
TAF
KGRR 
16nm SE 
180530Z 1806/1906 01004KT 5SM BR SCT100 FM181000 36003KT 5SM BR SCT040 FM181400 03006KT P6SM BKN040 FM190000 01005KT P6SM SCT100
NOTAMs
Click for the latest NOTAMs
NOTAMs are issued by the DoD/FAA and will open in a separate window not controlled by AirNav.

 

 
 

FBO, Fuel Providers, and Aircraft Ground Support

  
 Business Name 
 
 Contact 
 
 Services / Description 
 
Fuel Prices
 
Comments
  
Village of Sparta (FBO) 616-887-5744
no information available

If you are affiliated with Village of Sparta (FBO) and would like to show here your services, contact info, web link, logo, and more, click here
100LL Mogas
SS $4.65 $3.50 
 Updated 15-Aug-2018
 
   write
SS=Self service
Update Fuel Prices
 

Would you like to see your business listed on this page?

 If your business provides an interesting product or service to pilots, flight crews, aircraft, or users of the Paul C Miller-Sparta Airport, you should consider listing it here.  To start the listing process, click on the button below
 
Add a business
 

Other Pages about Paul C Miller-Sparta Airport

spartami.org/sparta-airport.php
Page from the Michigan Airport Directory (PDF)
 
Update a link
 
Copyright © AirNav, LLC. All rights reserved. Privacy Policy  Contact